Wind_Speed
24 23 21 20 19 18 18 18 17 18 19 19 18 17 16 15 15 14 14 13 12 13 12 11 10 9 9 8 7 7 7 8 8 8 8 8 8 9 9 10 10 10 10 10 10 10 11 11 12 11 11 11 11 12 12 11 10 10 9 8 8 7 6 7 10 10 8 7 7 8 10 12 12 12 12 10 10 13 12 9 10 11 10 10 10
21 20 19 18 18 18 17 18 18 18 20 19 17 17 16 15 15 15 14 13 13 13 12 11 10 10 9 8 7 7 8 9 9 9 9 9 9 8 8 9 9 9 9 10 10 10 10 10 11 11 11 11 11 13 12 12 12 11 10 9 9 9 7 7 8 10 9 8 8 8 10 11 11 11 12 11 11 13 13 11 11 11 11 10 10
18 17 17 17 17 16 16 17 18 19 20 19 17 17 17 15 15 15 14 13 12 12 12 11 10 10 10 9 7 7 7 8 8 9 9 10 10 9 8 8 8 9 9 9 9 10 9 10 10 11 11 10 11 13 12 12 12 11 11 10 9 9 8 6 5 7 9 9 9 9 10 11 11 11 12 12 12 12 13 13 12 12 12 11 10
14 13 14 16 17 16 14 16 17 18 19 19 18 17 17 16 15 14 13 13 11 11 11 10 10 10 10 9 8 8 8 7 7 7 7 8 9 9 9 7 7 9 9 9 8 8 8 9 10 11 11 11 11 12 12 12 11 11 11 11 9 9 9 7 6 5 6 8 9 9 9 11 11 11 11 12 13 13 13 13 13 12 12 12 10
12 9 7 10 11 9 9 12 16 17 17 18 18 17 17 16 15 14 13 12 11 11 10 10 10 10 10 10 9 9 8 8 7 7 6 6 7 8 8 7 7 8 9 8 8 8 7 7 8 10 11 12 12 13 12 12 12 11 11 11 11 10 9 9 8 7 6 7 9 9 9 10 11 11 12 12 13 14 14 13 13 12 12 11 10
15 13 10 11 13 10 8 8 10 13 15 17 18 18 17 16 15 14 13 13 12 10 10 9 9 9 10 9 9 9 8 8 7 7 7 6 6 7 7 6 7 8 8 8 8 7 7 7 7 7 10 11 12 13 13 13 13 12 11 11 11 10 9 10 9 9 9 9 9 10 11 11 11 11 12 13 12 13 13 13 13 12 12 12 11
17 15 15 15 14 12 11 9 8 10 11 14 16 16 16 16 15 15 14 13 12 11 10 9 8 8 9 8 9 8 8 7 6 6 7 7 6 6 6 6 6 6 7 7 7 6 6 5 5 5 6 8 10 11 12 13 13 13 12 11 10 9 9 9 9 10 10 11 11 11 11 12 12 12 12 13 13 13 12 13 13 13 13 13 12
19 18 16 14 13 14 15 15 14 13 12 14 15 14 15 16 15 14 13 12 11 11 11 10 8 8 8 8 8 8 7 6 6 6 6 6 6 6 5 6 6 6 6 5 5 5 5 4 4 4 5 6 8 8 10 12 13 13 12 11 10 9 9 8 9 10 10 10 11 12 12 12 12 12 12 12 13 14 13 13 13 13 12 13 14
17 18 17 16 16 16 18 19 18 15 13 14 14 12 12 14 14 13 12 11 11 11 11 10 9 9 8 8 7 7 6 5 5 5 4 4 5 6 6 6 6 6 6 6 5 5 5 4 5 6 6 6 7 7 8 9 11 11 11 11 10 10 10 10 10 10 10 10 11 11 11 11 11 12 12 12 13 13 13 13 14 14 13 12 13
16 17 18 19 20 20 21 21 19 17 16 16 15 12 11 11 12 12 11 11 11 10 10 10 10 9 9 8 7 6 4 5 6 6 5 4 4 4 6 6 6 7 8 8 7 6 6 5 6 7 7 6 6 6 6 7 9 10 10 10 10 11 11 11 11 11 10 11 11 11 11 12 11 12 12 13 14 13 14 14 14 14 14 13 13
17 18 18 19 21 20 21 22 22 21 20 19 18 16 15 13 12 11 11 10 10 10 10 10 9 9 8 8 7 6 6 7 7 7 6 6 4 3 5 5 5 6 8 8 8 8 7 6 7 7 7 7 7 6 6 7 7 9 11 11 12 12 11 11 11 11 11 11 10 10 11 12 12 12 13 13 14 14 14 15 15 16 15 14 14
19 19 18 19 20 18 20 24 25 23 21 21 20 19 17 15 13 13 12 11 10 10 10 10 10 9 10 9 8 6 7 7 7 7 6 6 5 4 4 4 4 5 6 8 8 8 9 8 7 7 7 8 8 7 7 7 8 9 11 12 13 13 13 13 11 11 10 10 11 12 12 12 12 13 13 13 13 13 14 15 16 17 16 16 17
23 22 20 21 24 23 24 26 26 24 22 22 21 20 18 15 14 14 14 12 11 11 11 11 11 11 11 11 10 9 7 6 6 6 6 5 5 5 4 4 4 4 4 5 6 6 7 8 8 7 7 9 9 7 7 8 8 10 11 12 13 14 14 15 15 14 12 11 12 12 12 12 13 13 12 11 11 12 14 15 15 16 17 18 18
25 25 24 25 25 25 26 26 25 24 23 21 22 21 19 16 15 15 13 12 12 12 12 13 14 13 13 13 13 12 10 8 7 6 5 4 5 4 3 2 3 3 3 4 4 4 5 6 7 7 7 8 9 8 8 8 8 10 11 12 13 14 15 16 17 17 17 16 15 14 13 12 13 13 11 11 12 13 14 14 14 15 15 14 13
26 24 24 25 24 24 26 26 25 24 23 21 20 21 19 18 17 16 15 14 14 13 13 15 16 15 15 14 14 14 12 10 8 7 6 5 5 4 2 2 3 3 3 3 4 4 5 6 6 7 7 7 8 9 9 9 9 10 11 12 13 14 15 17 19 19 20 20 18 16 14 13 13 12 11 12 14 14 14 14 13 12 11 9 10
29 27 25 24 23 21 21 23 23 22 22 22 21 21 21 19 18 19 19 19 18 17 17 17 16 15 14 13 14 14 12 10 8 7 6 6 5 3 0 2 2 2 2 2 3 3 3 4 5 6 6 6 9 11 11 11 10 11 12 13 13 14 15 18 20 20 21 22 21 19 18 17 17 17 15 15 14 12 12 14 13 12 11 11 13
24 26 26 25 24 23 21 22 21 20 20 21 22 23 22 19 18 20 20 19 18 18 19 18 16 14 13 13 13 12 11 9 7 6 6 6 5 3 1 1 1 1 1 1 2 2 3 4 4 4 4 5 9 11 11 12 11 11 13 14 14 15 16 18 20 21 21 22 23 23 24 24 24 24 23 22 19 15 13 13 13 13 13 14 15
18 20 19 18 19 20 21 22 21 19 18 19 19 19 18 16 16 16 16 16 16 16 17 18 16 14 13 12 11 10 9 7 5 4 4 4 4 3 2 1 1 1 2 2 3 3 5 7 6 4 4 8 11 12 11 12 11 12 13 15 16 17 17 17 20 22 24 24 25 26 27 27 27 27 27 27 25 23 20 17 15 14 15 16 16
17 17 15 14 13 14 16 17 17 16 16 16 15 14 13 13 12 11 12 14 15 14 14 14 14 12 11 10 9 8 6 4 3 3 2 1 2 3 2 1 0 1 2 3 3 3 4 6 8 7 7 10 12 12 12 13 13 13 14 15 17 18 17 16 17 18 21 23 24 26 28 29 29 29 30 29 28 27 26 23 18 15 17 18 16
16 16 15 15 15 15 16 16 15 14 14 13 13 12 12 11 10 9 10 11 12 11 11 10 10 9 8 6 5 5 3 2 3 3 3 3 1 1 2 1 1 2 3 4 4 4 4 4 7 10 10 10 11 11 12 13 15 15 16 17 17 17 18 18 17 16 17 17 18 21 23 25 26 28 29 29 29 29 29 26 21 18 18 18 16
14 15 15 15 15 15 15 15 14 13 12 12 11 10 10 10 8 7 6 6 8 8 7 7 6 6 4 2 1 1 1 2 5 7 6 6 5 1 2 0 2 2 3 5 5 5 5 4 6 10 12 13 13 14 14 14 15 17 18 19 19 19 19 18 17 17 18 17 16 17 18 18 20 22 24 26 29 31 30 28 24 20 18 17 17
13 13 14 14 14 14 13 13 12 11 10 9 9 8 8 8 7 6 5 5 6 6 5 4 3 2 1 2 3 4 4 4 6 8 8 8 7 4 2 4 6 5 4 4 5 6 5 4 7 12 15 15 16 17 17 17 17 18 19 20 20 21 22 21 18 17 18 17 17 17 17 18 18 19 21 20 22 25 28 26 22 18 16 16 16
13 13 13 13 12 12 12 11 10 9 8 8 8 8 7 6 6 5 5 5 5 5 5 4 3 3 3 4 5 6 5 4 5 6 7 7 8 6 5 7 8 6 6 6 6 6 6 6 11 15 16 16 16 17 18 18 19 20 20 21 21 21 21 21 19 18 19 20 19 19 20 20 18 18 19 17 16 20 22 19 17 17 19 20 20
12 12 12 12 11 10 11 11 10 9 8 7 7 7 6 6 5 6 5 5 4 5 5 4 3 3 3 3 3 3 3 2 4 6 7 6 6 6 6 6 7 7 8 8 7 7 8 10 14 16 16 16 17 17 18 19 19 19 20 21 21 22 22 20 17 17 18 19 20 22 23 22 20 19 18 15 15 18 19 18 18 20 22 23 21
10 10 10 10 9 9 9 9 10 9 8 7 7 7 7 6 6 6 6 5 5 5 4 4 3 3 2 2 1 1 2 2 2 6 9 8 7 7 7 7 6 6 7 7 7 9 11 13 15 16 16 16 16 17 17 17 18 18 18 19 20 22 21 19 17 16 17 19 20 22 23 23 23 22 18 14 16 18 20 20 19 19 20 21 19
10 10 10 9 9 9 8 8 8 8 8 8 8 8 7 6 6 5 5 5 4 4 4 3 3 2 2 2 2 2 3 2 3 5 8 9 9 10 10 10 9 9 8 6 6 8 11 14 15 15 16 16 15 14 14 14 15 16 15 15 16 17 17 16 15 16 17 19 19 20 22 23 22 19 17 17 18 18 18 18 17 16 17 17 15
9 10 9 9 9 9 9 8 8 8 8 8 8 8 8 7 6 6 5 5 5 4 4 3 3 3 3 3 3 3 3 3 4 6 8 8 8 9 9 9 10 9 7 6 7 10 13 15 16 15 14 13 13 12 12 11 11 11 10 10 11 12 13 14 15 16 17 17 18 19 20 18 15 14 15 16 15 13 14 15 15 14 14 13 13
9 9 9 9 9 9 9 9 8 7 8 8 8 9 8 7 7 7 7 6 6 5 5 5 4 5 5 5 5 5 3 4 7 9 11 11 10 10 9 8 8 8 7 9 13 15 14 14 13 11 11 11 11 11 11 10 9 9 9 10 11 11 12 15 16 16 17 17 17 18 18 15 14 14 13 13 12 12 13 14 14 14 13 12 11
8 8 8 9 9 8 8 9 8 7 7 7 8 9 9 8 6 6 7 7 6 4 4 5 6 6 7 6 7 6 5 6 9 11 11 11 11 12 11 11 11 12 13 15 17 17 13 10 10 10 9 10 9 9 10 9 9 10 10 10 10 10 11 13 14 14 14 14 16 17 17 17 15 13 12 12 12 12 13 14 15 15 14 10 8
8 8 9 9 9 8 8 8 7 7 6 6 5 7 8 9 8 6 5 6 6 5 4 4 5 6 7 7 7 7 8 8 10 11 10 10 11 12 13 13 14 14 15 16 16 13 9 8 9 8 8 8 9 9 9 9 10 11 11 11 11 12 12 13 14 13 11 11 13 15 15 15 15 14 13 12 11 13 14 15 16 16 14 10 8
6 7 7 8 9 8 8 7 7 6 6 5 4 4 4 7 9 8 5 3 4 4 3 4 5 6 6 6 7 8 9 9 9 9 10 10 10 11 12 12 11 11 13 14 12 8 8 8 8 8 8 9 9 10 11 11 12 12 13 13 13 13 13 13 13 13 11 9 10 12 13 15 16 15 12 11 13 14 13 13 14 14 12 9 8
5 5 6 7 7 7 6 6 6 5 4 4 3 3 2 3 6 7 5 3 3 3 3 4 4 5 6 5 5 6 7 7 8 8 9 9 9 10 10 9 8 10 12 11 8 7 8 9 9 10 10 11 11 12 12 12 13 13 13 14 13 13 13 12 11 12 11 10 9 10 11 14 15 14 14 15 16 17 17 18 16 14 12 10 9
4 5 5 4 4 5 5 5 5 4 4 2 2 3 2 2 2 3 3 3 4 6 6 5 3 4 5 6 5 5 5 6 7 8 8 9 9 9 8 8 8 11 13 10 8 9 10 10 11 11 12 12 12 12 12 13 13 13 13 14 14 14 14 13 11 11 12 11 9 9 10 12 14 15 16 16 16 16 17 17 15 13 12 12 10
4 4 4 4 4 4 4 4 4 3 2 2 2 2 2 2 2 2 2 1 2 3 5 7 6 6 6 6 5 4 5 6 7 7 8 10 10 9 9 9 8 10 10 8 8 10 11 11 11 12 12 12 12 12 13 13 13 13 13 13 14 14 13 12 12 11 10 10 9 8 8 11 14 17 17 16 14 14 14 14 13 12 11 10 10
2 3 3 3 4 4 4 4 3 2 1 2 2 2 3 3 3 3 3 3 2 2 2 5 6 5 4 5 4 3 3 5 6 6 7 9 9 9 10 9 8 8 8 8 9 10 11 11 12 12 12 13 13 13 13 13 13 13 13 13 13 13 13 12 11 10 9 8 8 8 9 12 15 17 17 17 15 14 13 12 11 10 10 10 9
1 1 2 3 4 4 4 4 4 2 2 2 2 3 3 3 2 2 2 3 3 3 2 2 3 3 3 3 3 3 3 4 4 5 7 8 9 9 9 9 8 8 9 9 10 11 11 11 12 12 12 13 13 13 13 13 12 12 12 12 12 12 11 11 10 8 7 7 6 7 9 12 14 16 17 17 15 14 13 12 11 10 9 8 8
2 2 3 3 3 3 3 4 4 3 3 2 3 3 3 2 2 2 3 3 3 3 2 2 3 3 2 3 4 4 3 3 2 3 5 7 8 8 8 8 9 9 10 10 11 11 11 11 11 11 12 12 13 13 12 11 11 11 10 9 10 10 9 9 8 6 4 2 3 6 10 13 16 18 19 18 16 14 14 13 12 10 9 8 7
1 2 3 2 2 3 3 3 3 3 2 2 2 2 2 2 3 3 3 3 3 3 2 3 3 3 3 5 5 5 4 3 3 3 5 6 7 7 7 8 9 10 10 10 11 11 11 11 11 11 12 12 12 11 11 10 9 9 8 7 7 7 7 6 4 1 1 3 6 10 13 14 15 16 17 17 15 13 12 11 9 9 8 7 5
1 1 2 1 1 3 4 2 2 2 2 2 2 2 2 3 4 4 4 4 4 4 4 4 4 5 5 6 6 6 5 5 4 5 5 6 6 7 7 8 9 10 11 11 11 11 11 11 12 12 12 12 11 11 10 9 8 8 7 5 4 4 4 3 3 4 5 8 12 14 15 14 13 12 13 13 12 11 10 9 8 7 7 6 5
2 2 2 2 1 1 2 2 1 1 1 1 1 1 2 3 4 5 6 5 5 5 5 5 5 5 6 6 7 6 6 5 5 5 5 6 7 7 8 9 10 10 11 11 11 11 12 12 12 12 11 11 11 11 10 9 8 7 5 4 2 3 4 5 6 8 10 13 15 15 13 11 11 10 10 9 9 9 8 7 7 6 6 5 4
2 2 2 2 2 1 1 2 1 1 0 1 0 1 2 4 5 6 6 6 5 5 5 5 5 5 6 6 7 7 6 5 5 5 5 6 7 8 8 8 9 9 10 11 10 11 12 12 12 12 11 11 12 11 10 8 7 5 5 4 4 5 7 9 10 11 12 14 13 12 11 11 10 10 10 9 8 7 6 6 6 5 5 4 4
3 2 1 2 3 2 3 3 2 1 2 1 1 1 2 2 4 5 6 5 5 4 4 4 4 4 5 7 7 7 5 5 6 6 6 7 7 7 7 8 8 8 8 9 9 9 11 12 11 11 11 11 11 11 10 9 8 6 5 6 8 9 10 12 13 14 14 14 13 12 11 10 9 9 9 9 7 6 6 5 5 4 4 4 4
4 3 2 3 4 3 3 3 2 2 2 1 1 1 0 1 2 4 4 4 4 4 4 4 4 3 5 7 8 7 6 6 6 7 7 7 7 6 6 7 7 7 7 8 7 7 8 9 9 10 10 10 10 10 10 10 10 9 9 10 12 13 13 14 14 15 15 15 13 11 10 8 8 8 8 7 6 6 6 5 4 4 4 4 4
4 3 2 2 3 3 3 2 2 1 1 2 3 3 1 1 1 2 3 3 3 4 4 4 4 4 5 6 7 6 6 6 6 6 6 6 6 6 6 6 6 7 7 7 7 6 6 6 7 9 11 12 12 11 10 9 10 10 11 12 13 14 14 13 12 13 13 13 11 9 8 8 8 8 7 6 6 5 5 4 3 3 4 4 3
5 4 3 3 3 3 2 1 0 1 1 3 4 3 2 2 1 1 2 3 3 3 4 5 5 5 6 6 6 6 7 7 6 6 6 6 6 7 6 6 7 7 7 7 8 8 7 6 7 9 11 13 14 14 13 13 13 14 14 14 14 14 14 13 11 11 11 10 9 8 7 7 7 7 6 5 4 4 4 3 3 3 3 3 3
4 4 3 3 3 3 2 1 1 1 1 2 3 3 3 3 2 1 1 2 2 2 4 5 6 6 7 7 7 7 7 7 7 7 7 7 8 7 7 8 10 11 10 10 11 11 9 8 9 9 10 12 14 14 13 13 15 15 14 14 14 13 12 11 10 9 8 8 7 7 7 7 6 5 4 4 3 3 3 3 2 3 3 2 2
5 4 4 3 3 3 2 1 1 2 1 1 3 3 4 4 3 2 3 3 3 3 4 4 5 5 6 7 7 7 7 7 7 7 7 8 8 8 8 10 11 11 12 12 13 13 13 12 12 12 11 12 13 13 11 11 12 13 12 12 11 11 10 10 9 8 7 7 7 6 6 6 6 5 4 3 3 3 4 3 3 3 2 2 2
5 5 5 4 3 3 2 1 0 1 1 1 3 4 4 4 4 4 4 4 3 3 4 4 4 5 5 5 6 6 6 6 6 6 6 7 7 7 8 10 9 8 8 10 11 11 11 11 11 12 11 11 12 12 10 9 10 10 10 9 9 9 9 9 7 6 6 6 6 5 5 5 6 5 5 4 5 5 5 4 4 4 3 3 3
6 6 5 4 3 3 3 2 1 0 1 2 3 4 4 4 4 4 4 3 3 3 4 4 4 5 5 5 4 4 5 5 5 5 5 5 5 5 7 9 9 8 7 8 9 10 10 10 9 9 9 9 10 10 10 9 8 8 7 7 7 7 7 7 7 7 7 7 5 6 6 6 5 5 5 5 6 6 6 6 6 5 4 4 4
6 6 6 5 4 3 2 2 1 1 1 2 4 4 4 3 4 4 3 3 3 4 4 4 4 4 4 4 4 4 4 4 4 4 4 5 5 5 6 8 9 9 8 8 8 9 10 9 9 8 8 9 9 9 9 8 7 6 6 6 6 7 7 8 9 9 9 7 5 6 6 6 5 5 5 5 5 5 5 5 5 4 4 4 4
6 7 7 5 4 4 2 2 2 2 2 2 3 4 4 4 4 4 4 4 4 4 4 4 4 4 4 4 3 3 3 3 3 3 4 4 4 5 7 8 9 8 9 9 8 8 8 9 9 9 9 9 9 9 9 8 8 7 7 7 8 8 8 9 9 9 9 8 6 5 5 5 5 5 4 3 3 3 3 3 3 2 3 3 4
Wind_Direction
177 181 179 176 177 176 173 172 169 164 163 165 165 164 164 164 163 162 159 159 161 162 161 159 160 163 162 163 166 173 180 184 185 185 182 179 180 181 183 191 195 190 185 183 182 182 182 184 186 184 181 180 177 175 174 171 170 174 173 164 156 161 187 181 154 147 157 168 174 176 178 183 189 194 193 192 201 203 200 206 218 220 215 222 243
176 175 174 174 175 172 171 170 168 166 166 168 168 165 164 164 164 161 158 159 160 161 162 160 159 161 160 161 162 169 179 182 182 183 183 178 175 178 185 191 191 186 182 182 180 180 181 182 182 180 181 182 180 176 174 173 174 174 172 168 163 163 182 187 158 152 163 175 184 182 182 193 201 199 200 201 198 202 208 212 216 219 221 226 236
170 169 169 170 172 172 169 168 168 168 168 170 169 165 163 163 164 162 159 160 162 164 163 161 160 160 160 159 155 159 169 175 178 183 186 183 180 179 183 186 185 181 176 175 174 174 176 179 177 176 179 182 181 178 176 178 179 175 175 178 175 173 184 198 181 166 170 177 189 193 187 197 210 206 202 206 206 206 212 216 219 221 226 231 234
162 166 171 169 169 172 169 163 164 166 168 170 169 165 162 163 164 163 161 162 164 164 163 162 162 161 162 161 157 155 157 160 167 174 178 182 183 181 180 180 182 179 170 163 161 160 166 173 174 176 181 182 181 181 181 183 183 181 181 183 186 186 189 201 207 199 186 181 192 205 196 194 211 215 205 206 208 211 218 221 223 226 229 233 238
132 137 158 153 141 145 157 158 162 165 166 167 168 165 162 163 165 165 165 164 164 163 164 164 162 163 165 165 160 157 156 155 160 163 161 160 167 173 173 172 174 172 165 156 150 148 150 158 166 175 183 185 184 185 187 188 188 188 187 187 190 192 194 204 212 220 223 206 199 208 207 200 208 215 211 210 209 212 220 225 227 232 232 232 235
137 125 119 115 103 97 105 124 147 163 168 169 168 166 165 165 167 168 166 165 164 164 164 163 162 165 168 167 165 162 160 161 161 164 163 159 157 161 163 165 164 163 162 157 152 149 147 145 150 165 179 187 190 191 193 194 195 195 195 196 195 190 194 207 214 219 229 231 218 210 211 213 214 214 214 215 217 218 221 226 229 232 232 229 227
156 137 125 129 135 141 138 128 135 150 158 164 166 166 167 168 168 168 166 164 163 163 162 161 160 162 164 166 166 163 162 165 164 165 167 165 162 162 164 167 163 161 164 163 157 155 153 153 154 157 168 181 190 196 199 200 202 203 202 205 205 199 201 213 221 224 228 234 232 220 215 217 219 221 221 219 223 227 226 228 231 231 231 229 225
151 148 143 146 159 169 171 173 175 169 158 157 160 162 166 168 167 166 164 162 161 160 158 155 154 157 158 160 161 161 165 167 167 172 173 170 169 171 172 177 178 175 176 173 166 164 168 172 175 171 171 177 182 192 200 201 205 209 207 207 211 212 217 223 229 233 231 231 234 230 226 221 218 223 226 221 223 231 234 235 240 243 239 233 230
138 145 151 159 166 171 176 179 180 174 164 157 155 153 157 162 163 161 159 156 155 155 152 149 148 146 148 152 153 153 160 164 166 172 175 173 176 181 184 189 194 193 192 191 186 185 188 187 192 193 191 187 181 179 185 189 195 201 205 209 213 217 223 226 226 229 228 226 227 227 228 227 221 223 226 223 226 236 240 239 245 254 254 245 237
134 133 138 147 152 156 161 166 168 167 163 159 153 143 138 145 152 154 152 150 148 147 147 147 147 145 144 143 136 136 155 174 178 181 181 176 179 188 192 197 203 204 203 201 198 199 199 192 196 202 199 196 191 185 182 183 185 192 199 208 213 216 221 223 223 224 225 226 226 226 230 233 231 232 232 233 240 246 247 246 246 254 260 258 250
122 122 122 128 134 137 141 146 152 155 158 160 156 148 141 139 140 139 136 135 137 141 145 147 146 143 137 130 131 153 184 193 192 195 195 190 188 195 195 196 203 208 208 206 202 200 198 194 195 198 198 198 200 200 201 200 200 204 210 215 219 220 223 227 228 229 230 234 235 234 237 239 241 245 243 244 248 248 249 253 253 256 260 260 258
104 105 108 118 125 126 128 133 137 140 146 152 152 151 149 144 141 136 131 126 124 129 136 138 135 126 119 118 130 156 180 189 192 196 199 199 191 189 195 193 193 204 208 209 208 202 197 199 199 199 204 208 208 212 217 218 219 219 220 225 227 227 229 233 236 236 237 241 243 242 243 246 248 251 250 250 251 247 247 251 254 258 259 258 262
104 104 108 116 118 119 123 128 131 132 136 140 143 145 145 141 138 134 127 122 119 121 123 121 116 112 111 115 119 123 132 147 163 175 185 197 193 187 200 203 197 204 209 212 219 210 200 203 206 209 218 220 217 221 228 231 237 237 234 235 235 234 234 236 238 240 241 244 248 247 246 248 250 252 251 247 244 244 247 249 252 256 258 259 264
98 100 104 108 111 116 121 123 125 126 127 131 134 136 136 133 131 127 123 118 113 112 112 110 107 104 105 111 113 111 111 114 122 136 149 166 176 175 189 213 207 206 203 210 224 220 212 216 217 218 225 227 226 228 234 240 246 249 246 245 243 243 242 240 238 239 239 242 247 251 251 250 251 254 249 236 234 244 251 253 255 256 255 257 260
93 94 99 101 103 109 114 117 119 121 124 127 127 127 129 130 129 131 135 132 119 110 109 109 108 105 104 110 113 109 105 108 115 122 125 131 138 141 159 195 198 199 192 197 213 218 221 229 234 233 233 234 235 238 245 250 250 250 250 248 248 247 245 245 245 243 241 242 243 249 254 253 251 250 240 232 238 245 247 248 249 250 251 251 249
91 93 96 98 100 101 104 108 112 114 119 120 118 118 121 124 123 125 130 131 124 118 114 109 104 102 103 108 109 108 108 111 118 122 123 124 114 99 146 226 206 205 189 189 213 219 220 228 239 245 246 245 243 244 245 246 247 252 253 249 248 245 242 246 251 250 248 247 246 247 250 250 249 248 244 242 243 240 237 242 240 236 242 250 250
86 90 92 95 100 103 104 105 105 106 107 108 110 113 114 113 113 115 117 116 114 115 116 113 106 103 106 107 105 105 107 109 115 120 125 133 120 87 17 290 275 274 249 254 259 244 242 248 250 261 267 253 250 254 254 248 247 253 255 252 251 249 245 247 254 257 254 251 251 252 252 252 254 255 254 254 250 240 233 240 240 235 240 250 255
76 81 85 88 93 98 102 103 103 102 102 101 104 108 108 106 107 110 109 107 104 106 111 114 112 109 108 107 104 102 98 95 100 106 111 130 127 94 43 344 309 309 295 289 286 272 273 276 269 263 260 255 256 264 267 260 254 255 257 255 253 252 248 245 248 256 257 254 251 251 251 252 254 255 255 256 253 246 240 240 243 243 246 253 257
69 73 75 78 82 84 89 94 96 98 102 104 105 106 105 104 105 106 108 109 106 104 106 109 110 110 107 104 101 97 88 73 65 67 64 85 113 87 43 358 284 296 285 280 280 267 272 281 274 260 254 259 264 268 266 262 256 254 258 260 257 257 258 252 246 252 259 258 254 252 252 251 250 251 252 251 248 244 239 238 243 249 252 256 256
66 68 68 73 79 83 85 86 86 87 92 100 105 108 110 111 110 106 109 113 112 111 111 111 115 119 117 111 105 95 79 27 340 331 331 322 312 68 57 20 321 321 292 277 271 255 242 259 268 259 253 257 266 269 269 266 261 256 256 260 262 264 269 268 261 257 261 261 257 253 251 249 248 248 248 246 246 243 239 239 245 248 249 253 249
66 67 67 68 71 75 76 77 80 82 85 89 92 93 96 102 104 98 98 107 111 115 120 124 129 133 131 120 84 14 339 309 300 295 297 298 293 312 76 245 259 283 289 282 280 271 254 250 262 261 260 264 270 271 270 270 270 266 262 262 263 264 268 272 270 266 264 262 255 250 245 240 238 238 238 241 245 245 244 246 248 243 240 246 249
70 69 69 69 67 65 65 65 68 72 76 82 83 81 83 90 95 96 97 98 99 103 110 116 120 116 79 14 345 331 321 313 306 301 298 298 295 290 270 267 272 283 294 297 293 285 282 282 272 269 271 277 279 277 276 276 275 274 272 271 271 270 270 270 270 269 266 260 254 251 247 239 234 233 232 233 237 243 248 251 247 236 231 234 240
74 73 72 70 66 64 62 60 61 62 63 67 73 74 76 80 83 88 94 100 103 100 95 91 88 76 45 13 2 355 343 332 330 328 318 307 304 300 286 283 286 283 276 276 279 282 285 274 266 270 280 285 283 280 279 278 277 278 280 280 281 280 277 271 267 265 264 260 257 253 249 245 242 239 234 225 226 238 245 241 229 219 220 222 222
73 71 69 67 64 62 59 54 52 52 51 53 57 59 59 60 61 62 63 70 84 85 80 76 74 73 66 43 25 15 5 344 337 347 349 337 326 323 315 305 298 287 277 271 268 271 270 264 266 276 286 287 283 281 279 276 274 275 277 279 281 281 279 273 264 259 258 258 257 255 253 251 246 244 241 228 221 231 233 224 218 219 221 221 218
73 70 69 66 63 62 60 55 51 47 42 44 47 45 43 45 47 48 47 51 60 64 64 65 60 53 60 68 57 19 19 23 352 355 2 2 355 350 345 336 324 316 303 281 265 267 269 270 276 285 289 288 289 290 286 282 279 278 278 278 276 274 272 268 260 255 252 250 251 252 253 253 251 250 247 229 212 217 222 220 217 215 212 211 207
71 68 68 67 63 61 60 56 51 46 42 43 43 39 38 40 43 45 46 47 51 53 50 45 45 43 31 16 11 7 12 33 44 20 12 7 358 351 349 345 341 342 335 310 293 296 292 290 296 300 301 301 301 298 291 287 286 288 287 280 271 265 263 259 254 254 254 252 252 252 253 256 256 247 234 221 214 215 218 213 205 198 196 192 180
60 58 57 57 55 53 51 47 45 45 42 41 40 38 37 37 39 40 38 34 34 40 44 38 29 28 18 5 3 6 9 38 46 25 10 2 351 345 344 341 338 341 337 317 312 314 306 303 308 311 309 307 305 301 298 292 286 285 284 276 266 261 261 260 258 259 261 260 259 257 256 258 251 230 215 215 217 211 202 196 188 184 183 174 157
50 49 46 43 41 39 38 37 37 39 41 41 40 35 31 31 37 38 30 22 18 16 19 23 22 13 3 357 359 359 10 37 27 5 351 347 343 341 340 334 329 329 316 301 306 310 305 302 306 306 300 298 299 297 294 289 284 283 282 276 271 268 268 266 262 261 264 265 263 262 260 255 244 229 216 214 211 200 190 186 181 178 181 176 163
46 44 40 38 34 30 31 31 31 34 40 46 49 42 32 30 38 38 28 25 32 35 22 14 11 5 359 359 1 358 360 4 356 345 339 337 337 336 332 326 322 318 309 307 312 314 307 298 299 302 300 299 299 297 294 291 290 291 290 285 281 278 274 269 265 263 263 263 264 263 259 249 237 225 214 207 198 186 183 180 172 167 165 159 148
41 39 37 34 27 23 27 30 30 32 36 43 57 56 44 39 38 32 22 27 38 44 30 1 350 351 352 354 353 346 338 336 335 337 339 337 333 330 325 322 320 316 314 320 323 317 303 298 302 307 309 308 306 304 302 300 298 297 294 290 287 285 280 274 270 268 264 263 267 268 261 249 236 223 214 201 181 172 176 177 170 163 154 141 135
40 38 37 33 22 18 24 27 25 28 31 34 44 63 69 54 37 23 16 21 20 11 352 334 331 336 339 341 339 331 325 327 334 339 338 335 335 332 329 330 329 327 331 337 334 318 307 310 313 312 312 312 310 306 302 299 299 297 295 293 291 289 285 280 275 272 268 266 267 268 263 254 241 228 212 187 166 161 159 155 153 153 147 140 140
41 39 38 35 23 16 20 23 20 22 27 31 34 34 65 76 48 32 31 30 10 354 335 319 321 330 336 338 338 328 323 330 343 344 341 344 346 341 339 345 349 349 351 349 339 328 327 326 321 318 314 310 305 303 301 299 297 295 294 293 292 290 286 286 283 276 271 268 264 261 258 250 237 219 199 181 168 159 150 144 141 140 137 133 131
41 35 30 30 27 21 21 20 17 15 16 25 42 33 27 43 57 63 77 64 26 20 16 1 344 341 342 341 338 338 343 352 356 355 357 1 357 352 358 8 6 3 4 357 338 333 334 328 322 319 316 312 309 307 304 301 298 297 296 295 293 292 291 293 291 280 271 266 259 250 244 236 222 205 190 178 164 150 144 142 137 132 131 131 131
46 44 33 20 19 22 22 18 11 9 19 43 68 69 69 73 61 58 78 77 30 27 23 11 358 351 353 355 354 357 7 6 0 2 8 7 6 12 17 12 3 2 2 350 334 334 331 323 320 319 315 312 312 309 307 304 301 300 298 295 293 294 295 296 294 287 277 267 257 245 229 216 204 189 174 161 150 140 136 135 133 133 135 136 138
57 70 65 30 14 21 28 22 13 18 73 97 94 99 110 112 98 67 47 36 19 22 35 20 2 352 1 13 7 355 355 353 350 359 7 5 11 20 13 359 354 356 348 335 332 335 329 320 318 316 312 311 310 308 308 308 306 303 300 297 297 298 297 296 295 291 282 270 257 238 215 199 189 176 161 150 143 138 135 135 135 136 138 142 146
17 67 60 29 17 23 30 24 20 40 99 113 112 116 115 108 97 77 54 36 14 8 39 39 7 352 7 18 357 338 345 351 346 351 0 6 15 20 8 355 356 356 345 340 341 338 332 328 325 320 317 315 312 310 308 307 308 307 304 301 301 302 300 298 299 299 292 277 250 221 200 184 169 157 147 139 133 130 128 128 127 124 126 133 140
324 358 13 14 13 20 31 35 38 63 110 130 129 126 114 78 53 33 24 24 15 10 30 30 8 357 7 8 355 344 348 358 356 354 2 11 18 16 5 356 355 352 347 346 346 340 336 336 332 327 324 321 317 316 314 310 308 309 307 303 304 306 307 305 304 304 303 286 199 173 165 156 150 147 140 129 121 119 119 119 117 115 120 129 137
330 11 10 7 1 1 13 34 45 61 106 135 126 107 73 33 23 12 8 18 19 16 27 31 24 21 9 357 351 340 329 326 331 342 354 5 9 7 2 360 359 357 353 350 347 344 342 340 337 333 330 327 324 322 319 314 311 311 311 307 308 318 325 324 320 324 82 100 114 126 131 131 133 137 134 126 119 116 116 117 117 115 123 140 156
197 101 47 56 35 360 10 30 50 52 77 117 117 94 53 26 19 12 11 21 27 27 31 35 33 29 16 2 357 355 349 352 359 359 360 5 6 4 6 6 4 2 359 355 354 354 350 345 344 342 338 336 334 330 325 321 319 318 317 315 322 342 360 26 70 94 108 114 116 118 119 116 115 119 123 124 123 119 115 117 121 122 131 149 164
201 148 79 50 22 346 7 13 20 46 59 94 123 82 26 15 15 16 19 24 29 33 34 32 34 33 21 12 15 18 16 18 22 16 11 11 10 10 12 12 8 7 5 2 2 1 358 355 354 351 348 348 346 342 338 336 333 333 337 342 7 51 78 98 105 112 121 124 122 117 112 108 107 106 105 109 116 118 118 121 126 132 139 146 151
220 167 108 26 358 332 308 318 338 30 6 330 342 18 17 17 17 20 23 24 27 35 34 33 42 37 13 12 33 41 27 19 23 20 16 16 16 15 16 14 9 9 8 7 7 6 4 4 2 0 360 1 360 358 357 354 354 5 24 39 66 93 103 106 111 118 122 121 117 111 104 105 111 112 107 106 109 114 119 126 129 131 135 138 142
235 229 230 331 349 336 309 314 323 217 227 267 318 354 16 25 22 21 24 24 26 34 35 37 50 39 8 18 48 55 34 22 29 27 24 25 23 20 19 16 13 12 11 10 10 10 9 10 12 12 11 10 11 15 18 20 24 37 59 80 93 100 103 104 110 117 115 109 107 109 109 110 118 122 119 115 112 115 121 124 122 122 123 125 132
233 252 280 323 339 337 323 314 290 245 240 239 208 227 8 44 23 19 27 29 30 40 49 49 54 41 14 21 40 46 37 35 40 36 33 33 29 22 18 15 16 21 22 20 19 18 16 17 21 23 24 23 24 27 33 40 47 56 72 90 97 99 99 101 106 112 112 107 106 108 107 107 115 120 121 119 115 116 117 113 109 112 111 107 112
225 238 258 303 324 334 339 322 288 250 244 231 213 213 220 219 11 17 28 34 39 52 63 61 58 52 36 31 38 45 48 50 48 44 39 34 29 26 24 22 29 39 41 41 46 48 41 38 44 50 52 54 55 54 55 63 72 77 81 87 91 92 94 95 96 102 106 106 105 103 104 109 114 115 112 108 106 107 106 97 94 104 105 102 109
225 235 249 289 321 334 341 328 293 176 219 227 215 210 214 202 154 50 32 38 53 71 78 73 67 63 59 55 56 58 58 56 51 47 42 38 36 34 29 32 45 53 54 58 67 68 59 53 58 62 63 66 70 72 74 83 90 92 91 92 92 93 95 98 100 103 104 101 97 98 103 106 108 106 102 102 104 102 99 97 100 105 101 96 109
233 238 251 285 316 331 340 334 330 348 291 241 219 207 196 179 157 90 41 52 74 99 102 92 84 78 72 68 65 63 62 60 58 56 54 50 48 47 49 55 61 63 62 66 71 70 65 64 66 65 64 68 73 75 77 83 87 86 85 88 91 94 98 102 103 103 103 98 95 99 101 98 100 105 107 107 100 86 87 97 109 110 101 90 101
243 242 253 278 305 320 335 347 351 359 356 221 204 191 171 154 143 132 120 109 108 118 116 104 98 94 85 76 71 68 66 66 67 65 62 60 58 59 62 64 62 58 59 64 68 69 68 69 70 70 69 72 76 77 74 76 80 81 78 78 83 94 106 111 110 110 111 104 98 99 98 96 102 108 102 91 87 87 94 105 110 108 109 100 88
247 244 250 266 290 310 315 299 303 20 61 142 168 170 165 157 150 150 146 134 122 124 122 112 109 108 98 87 80 76 73 72 73 70 67 67 64 58 57 60 58 49 45 52 59 64 66 67 70 73 73 74 77 79 76 73 77 80 78 76 80 93 107 113 113 117 119 110 102 101 100 99 103 105 95 85 85 88 89 93 93 89 89 90 80
249 244 245 251 270 302 317 299 258 230 102 141 160 165 169 167 161 160 160 147 131 134 132 123 120 117 108 98 93 88 81 77 75 71 68 69 63 50 50 59 62 56 46 46 53 60 62 64 68 75 78 78 80 80 79 77 78 79 79 79 83 94 105 110 111 111 110 105 102 106 105 101 101 104 98 89 86 85 84 86 86 78 66 64 66
243 239 237 240 250 273 303 297 257 212 153 161 168 168 170 173 168 163 161 152 142 140 137 133 132 128 116 107 104 98 91 87 82 76 73 70 62 55 56 60 61 57 53 53 55 58 60 64 69 75 80 84 83 78 72 72 75 79 83 89 92 96 104 109 110 110 107 103 102 107 106 99 95 100 101 94 84 79 76 72 70 67 63 61 58
236 231 228 228 237 251 272 283 244 210 186 180 177 171 169 173 170 162 161 157 151 148 145 142 141 135 123 115 112 106 101 99 92 85 82 79 69 62 60 60 59 55 50 50 55 58 59 65 76 83 84 85 86 81 74 72 76 80 86 94 98 101 104 105 105 108 109 106 101 98 95 85 76 77 80 77 65 57 53 47 38 36 49 56 55
Height
790 795 796 797 799 802 804 807 809 811 813 816 818 820 822 823 825 826 827 829 830 831 833 833 835 836 836 837 837 838 839 839 840 841 842 842 843 844 845 846 847 848 849 850 851 852 853 854 855 856 857 858 859 860 861 863 864 865 866 867 868 869 869 867 868 873 877 878 879 880 881 883 884 884 886 886 887 887 889 890 889 889 890 889 888
787 790 793 796 798 801 804 806 809 811 813 816 818 819 821 823 825 826 827 829 830 831 832 833 834 835 836 837 837 838 838 839 839 840 841 842 843 844 845 846 847 848 849 849 850 851 852 853 854 855 856 857 858 859 861 862 863 864 865 866 867 869 869 867 867 871 875 877 878 879 881 882 882 883 884 885 886 887 887 888 888 888 888 888 887
786 789 792 795 798 801 804 806 808 811 813 816 817 819 821 823 825 826 827 828 830 831 832 833 834 835 835 836 837 838 838 839 839 840 841 842 843 843 844 845 847 847 848 849 849 850 851 852 853 854 856 857 858 859 860 861 862 863 864 866 866 868 869 869 868 869 872 875 877 877 879 881 881 881 883 884 884 885 885 886 886 886 886 886 886
787 790 793 795 798 801 804 806 808 811 813 815 817 819 820 823 824 826 827 829 830 831 832 833 833 834 835 836 837 838 838 839 840 840 841 842 843 844 845 845 846 847 848 848 849 850 850 851 852 854 855 856 857 859 860 861 861 862 864 865 866 867 869 870 869 869 870 872 874 875 876 878 879 879 880 881 882 883 883 883 883 884 884 884 885
788 791 795 797 799 803 806 807 809 812 814 815 817 819 820 822 824 826 828 829 830 831 832 833 833 834 835 836 837 838 838 839 840 841 842 842 843 844 845 846 846 847 848 848 849 850 850 851 852 853 854 855 856 858 859 860 861 862 863 864 865 866 868 869 870 870 870 870 871 873 874 875 877 877 877 878 879 880 881 881 881 881 882 883 883
786 790 794 797 801 805 807 809 811 813 814 815 817 818 820 822 824 826 827 828 830 831 832 833 833 834 835 836 837 838 839 839 840 841 842 843 844 844 845 846 846 847 848 848 849 849 850 851 852 853 853 854 855 857 858 859 860 861 862 862 863 865 867 868 869 869 870 869 869 871 872 873 874 874 875 876 876 877 878 878 879 879 880 881 881
785 789 793 796 800 804 807 809 812 814 815 816 817 818 820 822 823 825 827 828 829 830 832 833 833 834 835 836 837 838 839 840 841 842 842 843 844 844 845 846 846 847 848 848 849 850 850 851 852 852 853 854 855 856 857 859 860 861 862 862 863 864 866 867 867 868 868 868 868 869 870 871 872 872 873 874 874 874 875 875 876 877 878 879 879
785 789 793 796 800 803 805 808 811 813 814 816 817 819 820 822 824 825 826 827 829 830 831 832 833 834 835 836 837 838 839 840 841 842 843 843 844 845 845 846 847 847 848 848 849 850 850 851 851 852 853 853 854 855 856 858 859 860 861 862 863 864 865 866 866 866 866 867 867 867 867 868 870 871 871 872 872 872 873 873 873 874 875 876 877
787 789 793 796 800 803 805 807 810 813 815 816 818 819 821 822 824 825 826 827 828 829 831 832 833 835 836 836 838 839 840 840 841 842 843 843 844 845 846 846 847 847 848 848 849 850 850 851 851 852 852 853 854 854 855 856 857 859 860 861 862 863 864 864 864 864 864 864 865 865 865 866 867 868 869 870 870 870 871 871 871 871 872 873 875
789 791 794 797 800 802 804 807 810 812 814 816 818 820 822 823 824 826 826 827 828 829 831 833 834 835 836 837 838 839 840 840 841 842 843 844 844 845 846 846 847 847 848 848 849 850 850 851 851 851 852 853 853 854 855 855 856 857 859 860 861 861 862 862 862 862 862 862 862 863 863 863 864 866 867 868 869 869 869 869 870 870 870 871 872
793 795 798 800 802 804 805 807 810 812 813 815 818 819 821 823 824 826 826 827 829 830 831 833 834 835 836 837 838 839 839 840 841 842 843 844 845 845 846 847 847 847 848 848 849 849 850 851 851 851 852 852 853 854 854 855 856 857 857 858 859 859 860 860 860 860 860 860 860 860 860 861 862 863 864 865 866 867 868 868 868 869 868 868 868
796 799 802 804 805 806 807 808 810 812 813 815 817 819 821 824 825 826 827 828 830 831 832 833 834 835 836 837 837 838 839 840 841 842 843 844 845 845 846 847 847 847 848 848 848 849 849 850 851 852 852 853 853 854 854 855 856 856 857 857 857 858 858 858 858 858 859 858 858 858 859 859 860 861 861 862 863 864 865 866 866 866 865 865 865
799 802 805 806 807 808 808 809 810 812 815 816 817 818 821 825 827 827 828 829 830 832 833 833 834 835 836 837 837 838 839 840 841 842 843 843 844 845 846 847 847 847 848 848 848 848 849 850 851 852 852 853 853 854 855 855 855 855 856 856 856 856 856 857 857 857 857 858 857 857 857 858 858 859 859 860 861 862 862 863 863 863 862 862 862
801 804 807 808 809 810 810 810 811 814 817 818 818 818 821 826 828 828 829 830 831 832 833 833 834 835 836 837 837 838 839 840 840 841 842 843 844 845 846 846 847 847 848 848 849 849 850 850 851 851 852 852 853 854 854 854 854 854 854 854 854 854 854 854 855 855 856 856 856 856 856 857 857 857 858 858 859 860 860 860 860 860 860 859 859
805 807 809 811 812 813 813 813 815 816 818 820 820 820 822 826 828 828 829 831 832 833 833 834 834 835 836 837 837 838 839 840 841 841 842 842 843 844 845 846 846 847 847 848 849 849 850 850 850 851 851 852 852 852 853 853 853 853 853 853 853 853 852 852 852 853 853 854 854 854 854 855 855 855 856 856 857 857 857 857 858 858 858 858 857
810 812 813 814 815 816 816 817 818 819 820 822 822 822 824 827 829 828 829 831 832 832 833 834 834 835 837 837 838 838 839 840 841 841 842 842 843 844 845 845 846 846 847 847 848 848 849 849 849 850 850 850 850 851 851 852 852 852 852 851 851 851 850 850 850 850 851 851 851 852 852 852 853 853 854 854 855 855 855 855 855 855 856 855 855
815 816 817 817 817 818 819 819 821 822 823 824 824 826 827 829 830 829 830 831 832 832 832 833 834 836 837 838 838 838 839 840 841 841 842 842 843 844 845 845 845 846 846 846 847 847 847 847 847 848 849 848 848 849 849 850 850 850 850 849 849 849 848 848 847 847 847 847 848 848 849 849 849 850 850 851 852 852 853 852 852 852 852 852 851
818 819 820 821 822 822 822 822 823 824 825 826 827 828 830 830 831 831 831 832 832 833 833 833 835 837 838 838 838 839 840 840 841 841 841 842 842 843 844 845 845 846 846 846 847 847 846 846 846 847 847 847 847 847 848 848 848 848 848 847 846 845 845 844 844 843 843 844 844 844 844 845 845 846 846 847 847 848 849 849 849 849 849 848 847
820 821 823 823 824 824 824 824 825 826 826 827 828 829 830 831 832 832 832 832 832 833 835 835 836 837 838 839 839 839 840 840 841 841 841 841 842 843 844 845 845 846 846 846 846 846 846 845 845 846 846 846 846 846 846 846 846 846 846 845 843 842 842 841 840 840 840 840 840 840 840 840 841 841 841 842 843 843 844 844 845 846 845 844 845
823 824 824 824 825 825 825 826 827 827 828 828 829 830 830 831 832 832 832 832 832 833 835 836 837 838 838 839 839 839 839 840 841 841 841 841 841 842 843 844 844 845 845 845 846 846 845 845 844 844 845 845 845 845 845 845 845 844 844 842 841 841 841 839 838 838 838 838 837 837 836 837 837 837 837 838 838 838 839 840 842 842 842 841 841
827 826 826 826 827 827 828 829 829 829 830 830 831 831 831 831 832 833 833 833 833 834 835 836 837 837 837 838 839 838 839 840 840 840 840 841 841 841 842 842 843 843 844 844 845 845 845 845 843 843 843 843 843 843 843 843 843 842 841 840 839 840 839 837 836 837 837 836 835 834 834 834 834 834 834 834 833 834 835 836 837 838 839 838 838
829 829 829 829 830 830 830 831 831 832 832 833 833 833 833 833 834 834 835 835 835 835 836 836 836 836 836 837 838 838 839 840 840 839 839 840 840 841 841 841 840 841 841 843 843 844 844 844 843 841 841 841 841 841 841 840 840 839 839 838 837 837 836 835 835 835 834 833 833 832 831 831 830 830 830 830 830 829 830 831 833 834 835 835 835
831 831 832 832 832 833 833 832 833 834 834 834 834 834 835 835 835 835 835 835 835 836 836 836 836 836 836 836 837 838 839 839 839 839 839 839 839 839 839 839 839 839 840 841 842 842 842 842 841 840 840 840 840 839 839 838 837 836 835 835 835 835 834 834 833 833 832 831 830 828 828 828 827 827 827 826 826 826 827 828 830 831 831 831 831
834 833 834 834 834 835 835 834 834 834 835 835 835 835 835 835 835 835 835 835 835 836 836 836 837 837 837 837 838 839 840 840 839 838 839 839 838 838 838 837 838 838 838 839 840 840 840 840 839 839 839 839 838 837 836 836 835 834 833 832 832 832 831 831 830 830 829 828 827 826 825 825 824 824 824 824 823 823 824 825 826 827 828 828 829
836 836 836 836 836 836 836 836 836 835 835 836 835 835 835 835 835 835 835 835 836 836 836 837 837 838 838 839 840 841 841 840 839 838 838 838 838 837 837 837 837 838 838 839 839 839 838 838 838 838 837 836 835 834 833 832 831 831 830 830 829 829 828 828 827 827 825 824 823 823 822 821 821 821 822 822 820 820 821 822 824 824 825 826 827
838 838 838 838 838 838 838 837 837 837 837 836 836 836 836 836 836 837 836 837 837 837 837 837 838 838 838 839 840 840 839 839 839 839 839 838 838 838 837 837 837 837 837 838 838 837 837 836 836 835 834 833 832 831 830 829 828 827 827 826 826 826 826 825 825 823 822 821 820 819 819 818 818 818 819 819 819 819 819 821 822 823 823 824 825
840 839 839 839 839 839 838 838 838 838 838 837 837 837 837 838 838 838 838 838 837 837 838 838 838 838 838 839 839 839 838 839 839 839 839 839 839 839 838 838 837 837 837 837 837 836 835 834 832 832 831 830 829 828 827 826 825 824 824 823 823 823 823 823 822 821 820 818 817 817 817 816 815 815 816 817 818 818 819 819 821 823 824 825 825
842 841 841 840 840 840 840 839 839 839 839 839 839 839 839 839 839 839 839 839 839 838 838 838 838 838 838 838 838 838 838 838 838 838 838 838 838 838 838 838 838 838 837 837 835 834 833 831 830 829 828 827 826 825 824 823 823 823 822 822 821 821 820 820 819 819 818 817 816 815 815 814 814 814 815 816 816 817 817 818 820 822 824 826 826
844 843 843 842 842 842 841 841 841 840 840 841 841 841 841 841 841 841 840 840 839 839 839 839 839 839 839 839 838 838 838 838 838 838 838 837 837 837 837 837 837 836 835 834 832 831 830 829 828 827 826 825 825 824 823 822 822 822 821 820 820 819 818 818 817 816 816 815 814 814 813 813 813 813 814 814 815 815 816 817 818 820 822 825 827
846 845 845 845 844 844 843 843 843 842 842 842 842 842 842 842 842 842 842 841 840 840 840 840 839 839 840 840 839 839 839 839 839 838 838 838 838 837 837 836 835 834 833 831 830 829 828 827 826 826 825 825 824 823 823 822 821 821 820 819 818 817 816 816 815 814 813 812 812 812 812 812 812 812 812 813 813 813 814 816 817 819 821 824 826
848 848 848 847 847 846 845 845 844 844 843 843 843 843 843 843 843 843 843 842 842 841 841 841 840 840 840 840 840 840 840 840 839 839 839 838 838 837 836 835 834 832 831 830 828 828 827 826 825 825 825 824 824 823 823 821 821 820 819 818 816 815 815 814 813 813 811 810 810 809 810 810 810 811 811 811 811 812 813 815 817 819 821 823 825
850 850 850 849 848 848 847 846 846 845 845 844 844 843 843 843 844 844 844 844 843 843 842 842 842 842 841 841 841 841 841 840 839 839 838 838 837 836 835 834 833 832 830 829 828 827 827 826 825 825 824 824 823 823 822 821 820 819 818 816 815 814 813 812 811 811 810 809 808 807 807 807 808 809 809 810 810 811 812 814 816 819 821 822 824
851 851 850 850 849 848 847 847 847 846 845 845 844 844 844 844 844 844 844 844 844 843 843 843 843 842 842 842 841 841 840 840 839 838 838 837 836 835 834 833 832 831 830 829 828 827 826 826 825 824 824 823 822 822 821 820 819 818 816 815 813 812 811 810 810 809 808 807 807 806 805 805 806 807 808 809 810 811 813 814 816 818 820 822 824
852 852 851 850 849 848 848 848 848 847 846 846 845 845 845 845 845 844 843 843 843 843 843 843 843 843 842 841 841 840 840 840 839 839 838 837 835 834 833 832 831 830 829 829 828 827 827 826 825 824 824 823 822 821 820 819 818 817 816 814 812 811 810 809 808 808 807 806 805 805 804 804 804 805 807 809 811 812 813 815 816 818 820 822 824
853 853 852 851 849 849 849 849 848 847 847 846 846 846 846 846 846 845 844 844 844 843 843 843 843 843 843 842 841 841 841 841 840 839 838 837 836 834 833 831 831 830 829 829 828 827 827 826 825 824 823 822 821 820 819 818 817 816 815 813 812 810 810 809 808 807 806 805 805 804 804 804 804 805 806 808 810 812 814 815 817 818 820 822 823
852 851 851 850 849 849 849 849 848 848 847 847 847 847 847 846 846 846 846 846 845 844 844 844 844 844 844 843 843 842 842 841 841 840 839 838 837 835 834 833 832 831 830 829 829 828 827 826 824 824 822 821 820 819 818 817 816 815 814 813 811 810 809 808 808 807 806 806 805 804 804 804 805 806 807 809 811 813 814 816 817 819 820 822 823
851 850 850 850 849 849 848 849 849 848 848 847 847 847 847 847 846 846 846 846 846 845 844 844 845 844 843 843 843 843 842 841 840 840 839 838 837 836 835 834 833 832 831 831 830 829 828 826 825 824 823 821 820 819 817 816 815 814 813 812 811 810 809 808 808 808 807 806 806 806 806 806 807 808 808 810 812 814 815 817 819 820 821 823 824
850 850 850 849 849 848 847 848 848 848 848 847 847 847 847 846 846 846 845 846 846 845 844 845 845 845 844 844 844 843 842 840 839 838 838 837 837 837 836 836 835 834 833 832 831 830 829 827 826 825 823 822 820 819 817 816 815 814 813 812 811 810 809 809 809 808 808 808 808 808 808 809 810 810 811 812 814 816 818 819 821 821 823 824 825
850 850 850 850 849 848 848 848 848 848 848 847 847 847 847 847 846 846 845 845 846 845 845 845 845 845 845 844 843 842 841 839 839 839 839 838 838 838 837 837 836 835 834 833 832 831 829 828 826 825 824 822 821 819 818 816 815 814 813 812 811 810 810 810 810 810 810 810 810 810 811 812 813 814 815 815 817 818 820 821 822 823 824 825 825
849 850 850 850 849 849 848 848 847 847 847 847 847 847 847 847 846 846 845 845 845 845 845 845 845 845 845 844 842 842 841 840 840 840 840 840 839 839 838 838 837 836 835 834 832 831 830 829 827 826 824 823 821 820 818 817 816 814 813 813 812 811 811 811 812 812 812 812 812 813 814 815 816 817 818 819 820 821 822 823 824 825 825 826 826
849 849 850 850 849 849 848 847 846 847 847 847 847 847 847 847 847 846 846 845 845 845 845 845 845 845 845 843 843 842 842 841 841 841 841 841 841 840 839 839 838 837 836 835 833 832 831 830 828 827 825 824 822 821 819 818 817 816 815 814 813 813 813 813 813 814 814 815 815 816 817 818 819 820 821 822 823 824 824 825 826 826 826 827 827
848 848 849 849 848 848 847 846 846 847 847 847 847 847 847 847 847 847 847 847 846 846 846 846 846 846 845 844 844 843 842 842 842 842 842 842 841 840 840 839 838 837 836 835 834 833 832 831 830 828 827 825 824 822 821 820 818 817 817 816 815 815 815 815 815 816 817 817 818 819 819 820 820 821 823 824 825 826 826 827 827 827 827 828 828
848 848 848 848 848 848 847 846 846 846 846 846 847 848 848 848 848 848 848 847 847 847 847 847 847 846 846 845 845 844 844 844 844 843 843 842 842 841 840 839 838 838 837 836 835 834 833 832 831 830 828 826 825 824 823 822 821 820 819 818 818 818 818 818 818 819 819 819 820 821 822 823 824 825 826 827 827 827 828 828 828 828 828 828 829
848 848 848 848 848 848 847 847 846 846 847 847 847 848 848 848 848 848 848 848 848 847 847 847 847 847 846 846 846 845 845 845 845 844 844 843 842 841 841 840 839 838 837 836 836 835 834 833 832 831 829 828 826 825 824 823 823 823 822 822 821 821 821 822 822 822 822 822 823 824 825 826 827 828 828 828 828 828 829 829 829 829 829 829 830
847 847 847 847 847 847 847 847 846 847 847 847 847 848 848 848 848 849 848 848 848 848 848 848 848 848 847 847 847 847 846 846 846 845 845 844 843 843 842 841 840 839 838 837 836 835 835 834 833 832 831 830 828 827 827 826 825 825 824 824 824 824 824 824 825 825 825 825 826 827 828 828 828 829 829 829 829 830 830 830 830 830 830 830 831
846 846 846 847 847 847 847 846 846 846 846 846 846 847 847 848 849 849 848 848 848 848 848 848 848 848 848 848 848 848 847 847 847 846 846 845 845 844 844 843 841 840 840 839 838 837 836 835 834 833 833 831 831 830 829 829 828 828 827 827 827 827 827 827 827 827 827 828 829 829 829 830 830 830 830 830 831 831 831 831 831 831 832 832 832
845 845 846 846 846 846 846 846 846 846 846 846 847 847 847 848 849 849 849 849 848 848 848 848 848 849 849 849 849 849 848 848 848 847 847 847 846 846 845 844 843 842 842 841 839 839 838 837 836 835 834 833 833 832 832 832 831 831 830 830 830 829 829 829 829 829 830 830 831 831 831 831 831 832 832 832 832 832 832 832 832 833 833 832 832
845 845 845 845 845 845 845 845 845 845 845 846 847 847 848 848 849 849 849 848 848 848 848 848 849 849 849 849 849 849 849 849 848 848 848 848 847 847 846 845 844 844 844 842 841 840 839 838 837 837 836 835 835 834 834 834 833 833 833 833 832 832 831 831 831 831 831 832 832 833 833 833 833 833 833 833 833 833 833 833 833 833 833 833 833
843 844 844 844 844 844 845 845 844 844 845 846 847 847 848 848 848 848 848 848 848 848 848 848 849 849 849 849 849 849 849 849 849 849 848 848 848 847 846 845 845 845 844 843 842 841 840 840 839 838 837 837 836 836 836 835 835 835 835 834 834 834 833 833 833 833 833 834 834 834 834 835 835 835 835 835 834 834 834 834 834 834 834 834 834
843 843 843 844 844 844 844 844 844 844 845 846 846 847 847 847 847 847 848 848 848 848 848 848 849 849 849 849 849 849 849 849 849 849 849 849 848 848 847 846 846 845 845 844 843 843 842 841 840 840 839 838 838 838 837 837 837 836 836 836 835 835 835 835 835 835 835 836 836 836 836 836 836 836 836 836 836 835 835 835 835 835 835 835 835
842 843 843 843 844 844 844 844 844 843 844 845 845 846 847 847 847 847 847 848 847 848 848 848 848 848 849 849 849 849 849 849 849 849 849 849 849 848 848 847 846 846 846 845 844 844 843 842 842 841 841 840 840 839 839 839 838 838 837 837 837 837 837 837 837 837 837 838 838 838 838 838 837 837 837 837 836 836 836 836 836 836 836 836 836